�N����,����,����,����,����,�C��,���x,�~����,�S�V����,�ő�u�ԕ���,,,,,
,,,,,,,,,����,����,����,�N��,,
yyyy/mm/dd,hh:mm:ss,(16),16����,m/s,��,%,mm,KW/�u,(16),16����,m/s,Time,,
2020/7/1,1:00:00,14,�k��,2.2,15.5,100,1,0,14,�k��,4.6,41,,
2020/7/1,2:00:00,15,�k�k��,2.1,15.6,100,1.5,0,15,�k�k��,4.7,56,,
2020/7/1,3:00:00,14,�k��,2.7,15.6,100,1,0,15,�k�k��,5.7,19,,
2020/7/1,4:00:00,14,�k��,3.2,15.7,100,1.5,0,14,�k��,5.2,6,,
2020/7/1,5:00:00,14,�k��,2.5,15.8,100,0.5,0.01,14,�k��,5.5,2,,
2020/7/1,6:00:00,14,�k��,2.6,16.4,100,0,0.05,14,�k��,5.1,46,,
2020/7/1,7:00:00,14,�k��,3.1,17,100,0,0.09,14,�k��,5.1,28,,
2020/7/1,8:00:00,14,�k��,3.7,18.9,92.1,0,0.33,13,���k��,6,44,,
2020/7/1,9:00:00,14,�k��,1.9,21.3,85.8,0,0.36,14,�k��,5.7,15,,
2020/7/1,10:00:00,16,�k,1.2,24.6,83,0,0.72,15,�k�k��,4.1,44,,
2020/7/1,11:00:00,6,�쓌,3,23.5,79.1,0,0.95,6,�쓌,5.6,44,,
2020/7/1,12:00:00,8,��,3.7,21.5,80.5,0,0.89,8,��,6.1,54,,
2020/7/1,13:00:00,8,��,3.2,21.3,77.6,0,0.63,7,��쓌,5.3,13,,
2020/7/1,14:00:00,7,��쓌,2.6,20.3,83.2,0,0.89,7,��쓌,5.3,1,,
2020/7/1,15:00:00,4,��,2,19.7,88.9,0,0.5,7,��쓌,4.7,8,,
2020/7/1,16:00:00,6,�쓌,0.6,16.7,93.3,0,0.22,6,�쓌,4.4,28,,
2020/7/1,17:00:00,2,�k��,1.4,17.6,92.5,0,0.19,2,�k��,2.9,26,,
2020/7/1,18:00:00,4,��,1.2,17.1,92.7,0,0.15,4,��,4.3,30,,
2020/7/1,19:00:00,1,�k�k��,3.1,16.6,95.8,0,0.06,1,�k�k��,4.3,59,,
2020/7/1,20:00:00,16,�k,1.3,15.9,97.5,0,0,2,�k��,4.8,1,,
2020/7/1,21:00:00,2,�k��,3,15.7,99.4,0,0,3,���k��,6.6,32,,
2020/7/1,22:00:00,2,�k��,1.8,16.1,99.4,0,0,2,�k��,4.2,26,,
2020/7/1,23:00:00,16,�k,1.9,16.6,98.7,0,0,1,�k�k��,3.6,14,,
2020/7/1,0:00:00,1,�k�k��,1.2,16.2,98.8,0,0,2,�k��,4.4,16,,
2020/7/2,1:00:00,2,�k��,2.6,15.9,99.1,0,0,2,�k��,5.1,46,,
2020/7/2,2:00:00,1,�k�k��,2.2,15.9,99.5,0,0,1,�k�k��,4.5,28,,
2020/7/2,3:00:00,1,�k�k��,2.2,16.1,99.8,0,0,1,�k�k��,5.2,59,,
2020/7/2,4:00:00,16,�k,1.8,16.3,100,0,0,1,�k�k��,4.1,0,,
2020/7/2,5:00:00,2,�k��,3.2,16.1,100,0,0.02,2,�k��,6,29,,
2020/7/2,6:00:00,1,�k�k��,2.1,16.5,100,0,0.04,2,�k��,5.1,9,,
2020/7/2,7:00:00,2,�k��,2.6,16.7,100,0,0.06,3,���k��,4.4,52,,
2020/7/2,8:00:00,2,�k��,2.5,16.7,100,0,0.06,1,�k�k��,4.8,16,,
2020/7/2,9:00:00,2,�k��,3,16.5,100,0,0.07,2,�k��,5,51,,
2020/7/2,10:00:00,2,�k��,2.5,17.4,100,0,0.15,2,�k��,4.4,2,,
2020/7/2,11:00:00,3,���k��,3.4,17.2,99.8,0,0.22,3,���k��,5.7,54,,
2020/7/2,12:00:00,3,���k��,3.2,15.9,99.9,0,0.22,3,���k��,7,16,,
2020/7/2,13:00:00,3,���k��,3.4,15.8,99.8,0,0.2,3,���k��,7.3,32,,
2020/7/2,14:00:00,3,���k��,3.7,15.8,99.9,0,0.2,3,���k��,6.4,14,,
2020/7/2,15:00:00,3,���k��,2.8,15.4,100,0,0.13,4,��,6.1,4,,
2020/7/2,16:00:00,4,��,2.8,15.3,100,0,0.07,4,��,4.4,7,,
2020/7/2,17:00:00,3,���k��,1.2,15.1,100,2,0.04,4,��,4.3,4,,
2020/7/2,18:00:00,1,�k�k��,0.7,15.2,100,1.5,0.02,2,�k��,2,32,,
2020/7/2,19:00:00,13,���k��,0.7,15.3,100,1,0.01,2,�k��,1.6,6,,
2020/7/2,20:00:00,14,�k��,0.4,15.3,100,2.5,0,12,��,2.4,24,,
2020/7/2,21:00:00,12,��,0.4,15.4,100,1,0,10,�쐼,1.6,7,,
2020/7/2,22:00:00,1,�k�k��,1.2,15.4,100,0.5,0,16,�k,2.2,59,,
2020/7/2,23:00:00,4,��,0.9,14.9,100,2,0,1,�k�k��,3.8,1,,
2020/7/2,0:00:00,11,���쐼,1.4,14.8,100,4,0,11,���쐼,2.1,51,,
2020/7/3,1:00:00,13,���k��,1.4,14.9,100,1,0,14,�k��,2.1,40,,
2020/7/3,2:00:00,3,���k��,0.3,15,100,0,0,13,���k��,2,15,,
2020/7/3,3:00:00,11,���쐼,1.3,15,100,0,0,10,�쐼,1.9,35,,
2020/7/3,4:00:00,16,�É�,0.1,12.4,100,0,0,11,���쐼,2,6,,
2020/7/3,5:00:00,9,��쐼,0.9,14.3,100,0,0.03,9,��쐼,2,43,,
2020/7/3,6:00:00,10,�쐼,1,15.5,100,0,0.15,10,�쐼,1.9,48,,
2020/7/3,7:00:00,15,�k�k��,0.5,16,99.5,0.5,0.36,12,��,2.3,7,,
2020/7/3,8:00:00,16,�É�,0.1,18.7,90,0,0.38,2,�k��,1.5,14,,
2020/7/3,9:00:00,7,��쓌,2,20,82.8,0,0.72,8,��,3.8,44,,
2020/7/3,10:00:00,8,��,3.1,20.8,81.9,0,0.93,6,�쓌,4.8,34,,
2020/7/3,11:00:00,8,��,3.7,20.8,79.8,0,1.03,8,��,6.3,46,,
2020/7/3,12:00:00,8,��,4.3,20,85.4,0,1.07,7,��쓌,6.7,41,,
2020/7/3,13:00:00,8,��,3.9,17.8,88.1,0,0.84,7,��쓌,7.7,36,,
2020/7/3,14:00:00,8,��,3.7,17.5,90,0,0.53,9,��쐼,7.3,21,,
2020/7/3,15:00:00,8,��,3.2,16.6,93.8,0,0.32,8,��,6.9,7,,
2020/7/3,16:00:00,7,��쓌,2.7,16.6,92.6,0,0.27,7,��쓌,5.9,19,,
2020/7/3,17:00:00,6,�쓌,2.5,16.3,93.9,0,0.2,7,��쓌,5.1,18,,
2020/7/3,18:00:00,6,�쓌,2.9,15.7,94.8,0,0.07,5,���쓌,5.3,12,,
2020/7/3,19:00:00,6,�쓌,2.8,15.3,96.1,0,0.02,7,��쓌,5.4,57,,
2020/7/3,20:00:00,6,�쓌,3.3,14.5,97.2,0,0,6,�쓌,6.7,53,,
2020/7/3,21:00:00,1,�k�k��,1,14.4,99.4,0,0,6,�쓌,4.3,4,,
2020/7/3,22:00:00,15,�k�k��,2.5,14.9,99.8,0,0,14,�k��,5,31,,
2020/7/3,23:00:00,15,�k�k��,1.5,15.1,98.5,0,0,15,�k�k��,4.9,15,,
2020/7/3,0:00:00,14,�k��,1.3,15.2,97.9,0,0,16,�k,3.8,1,,
2020/7/4,1:00:00,10,�쐼,1.4,15.5,98.1,0,0,10,�쐼,2.5,30,,
2020/7/4,2:00:00,9,��쐼,0.9,15.4,98.7,0,0,10,�쐼,2.5,9,,
2020/7/4,3:00:00,10,�쐼,0.9,15.1,99.4,0,0,10,�쐼,2.9,36,,
2020/7/4,4:00:00,3,���k��,0.3,15,99.5,0,0,7,��쓌,1.1,31,,
2020/7/4,5:00:00,5,���쓌,1.8,14.5,99.6,0,0.04,6,�쓌,2.4,58,,
2020/7/4,6:00:00,8,��,1.6,15,97.5,0,0.12,9,��쐼,3.4,47,,
2020/7/4,7:00:00,7,��쓌,2.1,15.2,92.8,0,0.18,8,��,4.6,48,,
2020/7/4,8:00:00,8,��,2.7,15.9,92.5,0,0.23,8,��,5.5,36,,
2020/7/4,9:00:00,8,��,2.8,15.7,92.4,0,0.29,8,��,7.1,49,,
2020/7/4,10:00:00,7,��쓌,3.4,15.2,94.8,0,0.29,7,��쓌,7.4,57,,
2020/7/4,11:00:00,8,��,3.5,15.1,96.3,0,0.25,7,��쓌,7.2,23,,
2020/7/4,12:00:00,7,��쓌,3,14.9,97,0,0.22,8,��,6.8,34,,
2020/7/4,13:00:00,7,��쓌,3.2,15,96.6,0,0.2,6,�쓌,5.8,7,,
2020/7/4,14:00:00,6,�쓌,2.1,15,97.6,0,0.19,7,��쓌,5.2,31,,
2020/7/4,15:00:00,6,�쓌,2.4,14.6,98.6,0,0.14,7,��쓌,4.2,46,,
2020/7/4,16:00:00,5,���쓌,0.5,14.7,98.9,0,0.11,6,�쓌,4.1,4,,
2020/7/4,17:00:00,4,��,2.1,14.8,99.4,0,0.09,4,��,2.7,54,,
2020/7/4,18:00:00,3,���k��,0.5,14.6,100,0,0.05,3,���k��,3.2,6,,
2020/7/4,19:00:00,1,�k�k��,1.1,14.6,100,0,0.02,1,�k�k��,3,29,,
2020/7/4,20:00:00,14,�k��,0.3,14.6,100,0,0,16,�k,2.5,21,,
2020/7/4,21:00:00,2,�k��,0.8,14.6,100,0,0,15,�k�k��,1.7,31,,
2020/7/4,22:00:00,16,�k,0.5,13.6,100,0,0,15,�k�k��,1.4,44,,
2020/7/4,23:00:00,16,�É�,0,13.4,100,0,0,10,�쐼,1.6,23,,
2020/7/4,0:00:00,6,�쓌,1,13.6,100,0,0,2,�k��,1.9,31,,
2020/7/5,1:00:00,5,���쓌,1,13.9,100,0,0,5,���쓌,2.2,31,,
2020/7/5,2:00:00,8,��,0.7,13.9,100,0,0,5,���쓌,1.8,38,,
2020/7/5,3:00:00,2,�k��,1.3,13.9,100,0,0,2,�k��,1.9,53,,
2020/7/5,4:00:00,13.9,���k��,100,0,0,,,,,,,,
2020/7/5,5:00:00,10,�쐼,0.6,14.2,100,0,0.02,9,��쐼,1.1,43,,
2020/7/5,6:00:00,14.7,�k��,100,0,0.08,,,,,,,,
2020/7/5,7:00:00,8,��,1.6,15.1,100,0,0.17,8,��,2.8,58,,
2020/7/5,8:00:00,8,��,1.9,15.6,95.9,0,0.27,6,�쓌,3.3,45,,
2020/7/5,9:00:00,7,��쓌,2.3,15.4,93.6,0,0.3,6,�쓌,3.4,34,,
2020/7/5,10:00:00,6,�쓌,2.1,16.4,92.8,0,0.34,7,��쓌,4.2,12,,
2020/7/5,11:00:00,7,��쓌,2.5,17.8,80.1,0,0.67,7,��쓌,4.4,57,,
2020/7/5,12:00:00,6,�쓌,2.5,17.5,88.7,0,0.63,6,�쓌,5.8,20,,
2020/7/5,13:00:00,6,�쓌,2.7,17.3,82.7,0,0.76,7,��쓌,5,35,,
2020/7/5,14:00:00,4,��,2.4,17.4,89.7,0,0.61,5,���쓌,4.7,10,,
2020/7/5,15:00:00,3,���k��,2.9,17.4,89.2,0,0.48,3,���k��,4.5,51,,
2020/7/5,16:00:00,3,���k��,2.5,17.2,89.7,0,0.32,4,��,5,34,,
2020/7/5,17:00:00,4,��,2.3,17,88.9,0,0.15,3,���k��,4.2,19,,
2020/7/5,18:00:00,5,���쓌,1.5,16.6,88.8,0,0.08,4,��,3.9,9,,
2020/7/5,19:00:00,5,���쓌,1.6,15.5,92.7,0,0.02,6,�쓌,3.3,57,,
2020/7/5,20:00:00,5,���쓌,2.7,15,96.3,0,0,6,�쓌,5,36,,
2020/7/5,21:00:00,9,��쐼,0.8,14.2,96.1,0,0,6,�쓌,5,24,,
2020/7/5,22:00:00,13,���k��,2.2,14.6,99,0,0,12,��,3.3,48,,
2020/7/5,23:00:00,13,���k��,2,14.9,98.3,0,0,15,�k�k��,2.9,13,,
2020/7/5,0:00:00,14,�k��,1.7,15.5,96,0,0,12,��,3.1,2,,
2020/7/6,1:00:00,13,���k��,0.5,14.1,98.4,0,0,7,��쓌,2.5,22,,
2020/7/6,2:00:00,13,���k��,1.1,14.5,99.3,0,0,14,�k��,2.2,11,,
2020/7/6,3:00:00,14,�k��,0.8,15.5,97.7,0,0,14,�k��,2.7,37,,
2020/7/6,4:00:00,1,�k�k��,1.2,15.3,98.8,0,0,1,�k�k��,2.5,59,,
2020/7/6,5:00:00,16,�k,0.9,16,98.1,0,0.03,16,�k,2.8,39,,
2020/7/6,6:00:00,1,�k�k��,1,17.1,95,0,0.1,14,�k��,3.1,29,,
2020/7/6,7:00:00,5,���쓌,0.6,18.2,91.5,0,0.21,6,�쓌,2.5,0,,
2020/7/6,8:00:00,5,���쓌,1.4,19.2,89,0,0.41,5,���쓌,2.8,56,,
2020/7/6,9:00:00,7,��쓌,2.3,20.3,81.5,0,0.73,6,�쓌,4.1,58,,
2020/7/6,10:00:00,7,��쓌,2.7,20.2,82.8,0,0.89,7,��쓌,4.4,53,,
2020/7/6,11:00:00,7,��쓌,2.9,18.1,88.7,0,0.73,8,��,6.1,13,,
2020/7/6,12:00:00,6,�쓌,2.8,18.9,86.1,0,0.67,8,��,5.4,26,,
2020/7/6,13:00:00,6,�쓌,2,19.3,90,0,0.64,6,�쓌,5.2,22,,
2020/7/6,14:00:00,6,�쓌,2.5,19.5,87.1,0,0.75,7,��쓌,4.9,23,,
2020/7/6,15:00:00,6,�쓌,2.4,17.5,91.6,0,0.46,6,�쓌,4.9,26,,
2020/7/6,16:00:00,5,���쓌,2.8,16.5,95.3,0,0.28,5,���쓌,4.5,16,,
2020/7/6,17:00:00,5,���쓌,3,15.9,97.5,0,0.16,4,��,4.8,17,,
2020/7/6,18:00:00,5,���쓌,3,15.3,99.2,0,0.07,5,���쓌,4.3,38,,
2020/7/6,19:00:00,5,���쓌,3.1,15,100,0,0.03,5,���쓌,5.1,48,,
2020/7/6,20:00:00,5,���쓌,3,14.9,100,0,0,6,�쓌,4.7,28,,
2020/7/6,21:00:00,3,���k��,2.3,15.2,100,0,0,5,���쓌,4.9,2,,
2020/7/6,22:00:00,3,���k��,1.3,15.3,100,0,0,3,���k��,3.1,13,,
2020/7/6,23:00:00,3,���k��,1.4,15.5,100,0,0,3,���k��,2.5,19,,
2020/7/6,0:00:00,16,�k,0.4,15.6,100,0,0,3,���k��,2.1,7,,
2020/7/7,1:00:00,15,�k�k��,0.6,15.5,100,0,0,16,�k,1.7,45,,
2020/7/7,2:00:00,5,���쓌,0.7,15.4,100,0,0,4,��,1.6,59,,
2020/7/7,3:00:00,16,�É�,0.2,15.3,100,0,0,4,��,1.8,1,,
2020/7/7,4:00:00,5,���쓌,0.4,15.3,100,0,0,5,���쓌,0.9,54,,
2020/7/7,5:00:00,16,�É�,0,15.5,100,0,0.01,6,�쓌,0.7,5,,
2020/7/7,6:00:00,3,���k��,1.1,15.7,100,0,0.04,3,���k��,1.9,58,,
2020/7/7,7:00:00,3,���k��,0.7,16.1,100,0,0.06,3,���k��,1.8,6,,
2020/7/7,8:00:00,2,�k��,0.5,16.7,100,0,0.13,4,��,1.8,24,,
2020/7/7,9:00:00,4,��,1.9,16.5,100,0,0.14,4,��,2.4,43,,
2020/7/7,10:00:00,3,���k��,1.3,16.7,100,0,0.11,4,��,2.3,1,,
2020/7/7,11:00:00,2,�k��,1.2,18.3,100,0,0.16,2,�k��,3.1,46,,
2020/7/7,12:00:00,4,��,2.2,18.3,99.7,0,0.24,4,��,3.6,34,,
2020/7/7,13:00:00,5,���쓌,2,18.3,99.4,0,0.2,4,��,2.9,1,,
2020/7/7,14:00:00,5,���쓌,2.6,18.9,93,0,0.38,6,�쓌,3.7,55,,
2020/7/7,15:00:00,4,��,1,18.4,96,0,0.19,6,�쓌,3.5,7,,
2020/7/7,16:00:00,4,��,0.9,18.9,94.3,0,0.19,4,��,2.7,15,,
2020/7/7,17:00:00,6,�쓌,1,18.1,97.3,0,0.07,6,�쓌,2.1,7,,
2020/7/7,18:00:00,5,���쓌,0.5,17.2,98.1,0,0.03,6,�쓌,2.4,25,,
2020/7/7,19:00:00,4,��,0.5,17.1,98.8,0,0.01,6,�쓌,1.2,3,,
2020/7/7,20:00:00,6,�쓌,0.5,16.8,99.9,0.5,0,3,���k��,2.5,33,,
2020/7/7,21:00:00,5,���쓌,0.8,16.4,100,0.5,0,5,���쓌,2.3,47,,
2020/7/7,22:00:00,5,���쓌,1.8,16,100,0,0,5,���쓌,2.3,56,,
2020/7/7,23:00:00,3,���k��,2.1,15.3,100,0,0,3,���k��,3.3,57,,
2020/7/7,0:00:00,3,���k��,1.1,15.3,100,0,0,3,���k��,2.6,41,,
2020/7/8,1:00:00,3,���k��,1.8,15.2,100,0,0,2,�k��,2.5,44,,
2020/7/8,2:00:00,3,���k��,0.7,15.5,100,0,0,2,�k��,2.9,7,,
2020/7/8,3:00:00,2,�k��,1.3,15.4,100,0,0,2,�k��,2.6,59,,
2020/7/8,4:00:00,3,���k��,1.3,15.4,100,0,0,2,�k��,2.6,0,,
2020/7/8,5:00:00,3,���k��,1.1,15.3,100,0,0.02,3,���k��,2.5,44,,
2020/7/8,6:00:00,4,��,1.1,15.6,100,0,0.07,3,���k��,2,11,,
2020/7/8,7:00:00,4,��,0.4,16.1,100,0,0.12,3,���k��,1.9,12,,
2020/7/8,8:00:00,5,���쓌,1.9,17,100,0,0.25,5,���쓌,2.6,56,,
2020/7/8,9:00:00,5,���쓌,2,16.8,99.6,0,0.34,5,���쓌,3,43,,
2020/7/8,10:00:00,4,��,1.3,17.6,99.5,0,0.25,5,���쓌,3.1,3,,
2020/7/8,11:00:00,4,��,1.9,16.8,99.3,0,0.2,4,��,3.1,47,,
2020/7/8,12:00:00,4,��,2.7,16.7,100,0,0.2,4,��,4,58,,
2020/7/8,13:00:00,3,���k��,2.1,16.8,99.8,0,0.21,4,��,4,0,,
2020/7/8,14:00:00,3,���k��,2.9,16.7,98.9,0,0.24,4,��,4.4,34,,
2020/7/8,15:00:00,3,���k��,2.5,16.3,99.5,0,0.19,4,��,4.7,16,,
2020/7/8,16:00:00,3,���k��,2.1,16.6,99.7,0,0.15,3,���k��,4.5,26,,
2020/7/8,17:00:00,4,��,1.4,17.4,97,0,0.21,3,���k��,3.3,16,,
2020/7/8,18:00:00,7,��쓌,0.4,16.2,99.3,0,0.06,4,��,2.5,5,,
2020/7/8,19:00:00,2,�k��,0.6,16.3,100,0,0.02,14,�k��,1.3,59,,
2020/7/8,20:00:00,16,�É�,0.1,16.1,100,0,0.01,2,�k��,1.6,6,,
2020/7/8,21:00:00,10,�쐼,0.5,16.2,100,0,0,9,��쐼,1.7,51,,
2020/7/8,22:00:00,16,�É�,0,16.1,100,0,0,5,���쓌,1,25,,
2020/7/8,23:00:00,16,�É�,0.2,15.7,100,0,0,1,�k�k��,1.9,13,,
2020/7/8,0:00:00,16,�k,0.7,15.7,100,0,0,14,�k��,1.5,41,,
2020/7/9,1:00:00,14,�k��,1.4,15.5,100,0,0,14,�k��,2.5,52,,
2020/7/9,2:00:00,12,��,1.6,15.2,100,0,0,14,�k��,2.6,16,,
2020/7/9,3:00:00,11,���쐼,0.5,14.6,100,0,0,13,���k��,2.5,3,,
2020/7/9,4:00:00,13,���k��,0.6,15,100,0,0,10,�쐼,1.7,8,,
2020/7/9,5:00:00,15,�k�k��,0.5,15.1,100,0,0.06,14,�k��,2.5,10,,
2020/7/9,6:00:00,11,���쐼,0.5,16.5,100,0,0.17,8,��,2,36,,
2020/7/9,7:00:00,6,�쓌,1,17.1,100,0,0.21,5,���쓌,2.3,56,,
2020/7/9,8:00:00,1,�k�k��,1.8,19.6,100,0,0.32,16,�k,3.1,55,,
2020/7/9,9:00:00,7,��쓌,2.2,24.2,80.9,0,0.75,7,��쓌,4,51,,
2020/7/9,10:00:00,7,��쓌,2.3,24.6,82.8,0,0.92,5,���쓌,5.3,12,,
2020/7/9,11:00:00,5,���쓌,2.5,23.8,68.7,0,1.01,4,��,5.3,54,,
2020/7/9,12:00:00,4,��,1.9,24,66.8,0,0.75,7,��쓌,4.2,28,,
2020/7/9,13:00:00,2,�k��,2.1,25.2,72.9,0,0.68,4,��,3.9,3,,
2020/7/9,14:00:00,5,���쓌,1.7,26.5,63.9,0,0.67,4,��,2.9,53,,
2020/7/9,15:00:00,8,��,2.5,27.5,60.2,0,0.69,9,��쐼,5.2,28,,
2020/7/9,16:00:00,8,��,1.8,26.1,65.7,0,0.53,10,�쐼,4.3,2,,
2020/7/9,17:00:00,9,��쐼,1.6,26.6,61.7,0,0.43,9,��쐼,3.6,0,,
2020/7/9,18:00:00,9,��쐼,1.4,24.3,79.2,0,0.25,9,��쐼,2.9,10,,
2020/7/9,19:00:00,11,���쐼,2.2,19.9,87.4,0,0.07,11,���쐼,3,55,,
2020/7/9,20:00:00,2,�k��,2.5,16.7,93.7,0,0,2,�k��,7,22,,
2020/7/9,21:00:00,2,�k��,2.3,16.3,94.1,0,0,2,�k��,5.9,19,,
2020/7/9,22:00:00,1,�k�k��,2,15.7,95.6,0,0,2,�k��,3.3,9,,
2020/7/9,23:00:00,2,�k��,1.2,15.5,97.5,0,0,1,�k�k��,2.9,41,,
2020/7/9,0:00:00,2,�k��,1.2,14.8,98.6,0,0,2,�k��,3.7,11,,
2020/7/10,1:00:00,5,���쓌,0.8,15.7,99.4,0,0,2,�k��,1.8,9,,
2020/7/10,2:00:00,9,��쐼,0.7,15.4,99.6,0,0,9,��쐼,1.2,59,,
2020/7/10,3:00:00,16,�É�,0,15.2,100,0,0,6,�쓌,1.1,44,,
2020/7/10,4:00:00,16,�É�,0,15.7,100,0,0,2,�k��,1,30,,
2020/7/10,5:00:00,1,�k�k��,0.5,15.9,100,0,0.02,1,�k�k��,2.2,59,,
2020/7/10,6:00:00,5,���쓌,0.7,16,100,0,0.06,1,�k�k��,2.4,4,,
2020/7/10,7:00:00,3,���k��,0.4,16.5,100,0,0.13,2,�k��,2.3,7,,
2020/7/10,8:00:00,5,���쓌,1.6,16.6,100,0,0.22,6,�쓌,2.5,27,,
2020/7/10,9:00:00,6,�쓌,2,17.3,100,0,0.35,7,��쓌,2.9,46,,
2020/7/10,10:00:00,5,���쓌,2.7,17,95.7,0,0.56,5,���쓌,4.1,59,,
2020/7/10,11:00:00,6,�쓌,2.8,17.3,91.7,0,0.66,5,���쓌,4.3,51,,
2020/7/10,12:00:00,6,�쓌,2.8,17,93.4,0,0.58,5,���쓌,4.6,39,,
2020/7/10,13:00:00,6,�쓌,2.2,17.2,90.8,0,0.56,7,��쓌,4.8,38,,
2020/7/10,14:00:00,5,���쓌,2.2,17.5,90.7,0,0.51,4,��,4.7,38,,
2020/7/10,15:00:00,3,���k��,1.6,18.1,91.2,0,0.44,5,���쓌,4,24,,
2020/7/10,16:00:00,5,���쓌,1.9,18.7,86.4,0,0.55,4,��,3.3,12,,
2020/7/10,17:00:00,4,��,3.2,16.7,95.2,0,0.35,3,���k��,4.8,51,,
2020/7/10,18:00:00,3,���k��,3.8,15.2,97.7,0,0.09,3,���k��,5.6,55,,
2020/7/10,19:00:00,2,�k��,2.8,15,99.3,0,0.03,2,�k��,5.5,16,,
2020/7/10,20:00:00,2,�k��,2.1,15.1,99.8,0,0,1,�k�k��,5.2,4,,
2020/7/10,21:00:00,3,���k��,1.8,14.8,99.9,0,0,2,�k��,3,15,,
2020/7/10,22:00:00,4,��,1.4,14.7,100,0,0,2,�k��,2.8,2,,
2020/7/10,23:00:00,3,���k��,1.7,14.4,100,0,0,3,���k��,3.5,41,,
2020/7/10,0:00:00,3,���k��,1.4,14.3,100,0,0,3,���k��,3.2,32,,
2020/7/11,1:00:00,16,�É�,0,14.3,100,0,0,1,�k�k��,2,27,,
2020/7/11,2:00:00,13,���k��,1.9,14.3,100,0,0,13,���k��,2.5,58,,
2020/7/11,3:00:00,14,�k��,1.1,14,100,0,0,14,�k��,2.7,23,,
2020/7/11,4:00:00,12,��,0.7,13.6,100,0,0,13,���k��,1.5,1,,
2020/7/11,5:00:00,16,�É�,0,14,100,0,0.02,13,���k��,1.3,4,,
2020/7/11,6:00:00,2,�k��,1,14.7,100,0,0.06,2,�k��,1.7,57,,
2020/7/11,7:00:00,16,�k,1,15.4,100,0,0.08,15,�k�k��,1.7,52,,
2020/7/11,8:00:00,9,��쐼,0.4,15.8,100,0,0.16,10,�쐼,1.3,39,,
2020/7/11,9:00:00,16,�É�,0.2,17.2,99.8,0,0.25,9,��쐼,1.5,15,,
2020/7/11,10:00:00,6,�쓌,1.7,17.2,95.1,0,0.36,6,�쓌,2.5,58,,
2020/7/11,11:00:00,5,���쓌,1.5,20.3,88.2,0,0.51,4,��,2.5,44,,
2020/7/11,12:00:00,5,���쓌,2.6,21,80.4,0,0.76,4,��,4.3,18,,
2020/7/11,13:00:00,4,��,2.5,19.9,91.4,0,0.77,5,���쓌,5.1,51,,
2020/7/11,14:00:00,5,���쓌,2.2,20.5,82.8,0,0.9,5,���쓌,5.2,13,,
2020/7/11,15:00:00,4,��,1.4,19.8,85.3,0,0.6,4,��,3.5,40,,
2020/7/11,16:00:00,4,��,1.8,19.3,88.6,0,0.38,5,���쓌,3.7,17,,
2020/7/11,17:00:00,5,���쓌,1.7,18.6,89.6,0,0.31,4,��,3.2,18,,
2020/7/11,18:00:00,3,���k��,2.7,16.5,96.7,0,0.12,3,���k��,3.8,56,,
2020/7/11,19:00:00,3,���k��,2.7,15.4,98.4,0,0.02,4,��,5,49,,
2020/7/11,20:00:00,2,�k��,2.3,15.1,99.8,0,0,3,���k��,4,27,,
2020/7/11,21:00:00,2,�k��,2,15.2,99.9,0,0,2,�k��,3.2,55,,
2020/7/11,22:00:00,16,�k,0.5,15.5,99.7,0,0,2,�k��,2.6,2,,
2020/7/11,23:00:00,16,�k,0.3,15.5,99.6,0,0,1,�k�k��,1.5,49,,
2020/7/11,0:00:00,13,���k��,0.8,15.8,99.2,0,0,16,�k,1.6,34,,
2020/7/12,1:00:00,1,�k�k��,0.6,16,98.7,0,0,1,�k�k��,1.4,58,,
2020/7/12,2:00:00,16,�É�,0,15.9,99,0,0,2,�k��,1.2,0,,
2020/7/12,3:00:00,6,�쓌,0.7,15.8,98.8,0,0,5,���쓌,1.7,43,,
2020/7/12,4:00:00,4,��,1.7,15.5,98.8,0,0,4,��,2.4,59,,
2020/7/12,5:00:00,3,���k��,2.5,14.9,99.7,0,0.01,3,���k��,4.3,39,,
2020/7/12,6:00:00,3,���k��,1.9,14.7,100,0,0.02,3,���k��,3.2,55,,
2020/7/12,7:00:00,3,���k��,2.3,14.9,100,0,0.04,3,���k��,3.9,21,,
2020/7/12,8:00:00,2,�k��,1.7,15.5,99.9,0,0.06,2,�k��,4,23,,
2020/7/12,9:00:00,3,���k��,2.8,15.7,93.9,0,0.16,4,��,4.4,39,,
2020/7/12,10:00:00,3,���k��,2.5,15.9,94.8,0,0.14,3,���k��,4.3,49,,
2020/7/12,11:00:00,4,��,1.8,15.4,96.7,0,0.14,4,��,3.9,20,,
2020/7/12,12:00:00,4,��,1.2,16.1,94,0,0.18,4,��,2.8,9,,
2020/7/12,13:00:00,14,�k��,0.3,17.9,90.7,0,0.32,5,���쓌,2.5,3,,
2020/7/12,14:00:00,6,�쓌,0.5,18.1,88.9,0,0.35,14,�k��,2.7,34,,
2020/7/12,15:00:00,8,��,1.1,18,92.5,0,0.25,5,���쓌,3.2,5,,
2020/7/12,16:00:00,7,��쓌,1.6,17.2,90,0,0.19,6,�쓌,2.5,49,,
2020/7/12,17:00:00,6,�쓌,1.5,15.9,94,0,0.1,6,�쓌,3,7,,
2020/7/12,18:00:00,6,�쓌,0.9,15.3,95.8,0,0.04,6,�쓌,2.5,48,,
2020/7/12,19:00:00,4,��,1.2,15,98.5,0,0,4,��,2.9,16,,
2020/7/12,20:00:00,4,��,1.4,14.8,99.7,0.5,0,4,��,1.9,56,,
2020/7/12,21:00:00,5,���쓌,0.4,14.6,100,0.5,0,4,��,2.5,24,,
2020/7/12,22:00:00,13,���k��,0.4,14.7,100,0.5,0,6,�쓌,0.9,10,,
2020/7/12,23:00:00,12,��,0.7,14.8,100,0,0,13,���k��,1.3,41,,
2020/7/12,0:00:00,9,��쐼,0.4,14.7,100,0,0,13,���k��,1.3,13,,
2020/7/13,1:00:00,4,��,0.5,14.3,100,0.5,0,6,�쓌,1.5,13,,
2020/7/13,2:00:00,4,��,1.1,14.1,100,0,0,3,���k��,2.1,50,,
2020/7/13,3:00:00,6,�쓌,0.7,14,100,0.5,0,3,���k��,1.7,13,,
2020/7/13,4:00:00,5,���쓌,1.2,13.8,100,0,0,6,�쓌,2.3,37,,
2020/7/13,5:00:00,16,�É�,0.2,14.1,100,0,0.01,5,���쓌,1.9,5,,
2020/7/13,6:00:00,3,���k��,1.3,14.5,100,0,0.05,2,�k��,2.3,51,,
2020/7/13,7:00:00,5,���쓌,1.7,14.7,98.5,0,0.1,4,��,2.5,12,,
2020/7/13,8:00:00,5,���쓌,0.9,14.9,97.8,0,0.16,5,���쓌,2.5,12,,
2020/7/13,9:00:00,7,��쓌,0.8,16.1,95,0,0.26,6,�쓌,2.2,55,,
2020/7/13,10:00:00,7,��쓌,2,17.5,94.4,0,0.42,7,��쓌,3.2,58,,
2020/7/13,11:00:00,7,��쓌,2.8,18.3,84,0,0.75,7,��쓌,5.4,50,,
2020/7/13,12:00:00,8,��,3.6,17.4,89.6,0,0.7,6,�쓌,5.3,42,,
2020/7/13,13:00:00,7,��쓌,3.3,17.7,84.8,0,0.69,7,��쓌,5.5,16,,
2020/7/13,14:00:00,7,��쓌,3.1,18.3,87.7,0,0.62,9,��쐼,6.3,32,,
2020/7/13,15:00:00,7,��쓌,3.5,18.2,83.2,0,0.62,7,��쓌,6.2,19,,
2020/7/13,16:00:00,6,�쓌,3.4,17.4,87,0,0.53,8,��,6.2,17,,
2020/7/13,17:00:00,7,��쓌,2.1,16.4,92.4,0,0.17,6,�쓌,4.9,0,,
2020/7/13,18:00:00,6,�쓌,1.3,15.9,94.8,0,0.06,6,�쓌,3.3,2,,
2020/7/13,19:00:00,1,�k�k��,1.2,15.6,96.3,0,0.02,7,��쓌,2.2,9,,
2020/7/13,20:00:00,16,�É�,0,14.3,98.5,0,0,1,�k�k��,1.4,0,,
2020/7/13,21:00:00,16,�k,1.4,14.2,99.8,0,0,16,�k,2.2,56,,
2020/7/13,22:00:00,2,�k��,1.4,14.9,99.6,0,0,3,���k��,2.5,44,,
2020/7/13,23:00:00,16,�É�,0,14.9,99.4,0,0,1,�k�k��,2.5,1,,
2020/7/13,0:00:00,3,���k��,0.6,14.9,99.7,0,0,1,�k�k��,1.5,59,,
2020/7/14,1:00:00,16,�É�,0,14.6,99.8,0,0,2,�k��,2.3,3,,
2020/7/14,2:00:00,12,��,0.3,14.5,100,0,0,12,��,0.8,50,,
2020/7/14,3:00:00,16,�É�,0,13.4,100,0,0,14,�k��,1.1,34,,
2020/7/14,4:00:00,2,�k��,1,14.4,100,0,0,3,���k��,1.9,32,,
2020/7/14,5:00:00,16,�É�,0.2,14.5,100,0,0.02,2,�k��,2,6,,
2020/7/14,6:00:00,2,�k��,1.6,14.9,100,0,0.06,16,�k,2.3,52,,
2020/7/14,7:00:00,2,�k��,1.2,16.5,99.8,0,0.18,2,�k��,2.5,58,,
2020/7/14,8:00:00,3,���k��,1.8,18.4,89.3,0,0.35,2,�k��,2.9,57,,
2020/7/14,9:00:00,2,�k��,2.5,18.8,81.3,0,0.69,4,��,4.4,34,,
2020/7/14,10:00:00,5,���쓌,4.7,19.9,80.3,0,0.92,4,��,6.2,47,,
2020/7/14,11:00:00,4,��,4.6,20.4,80.2,0,0.85,5,���쓌,6.8,12,,
2020/7/14,12:00:00,5,���쓌,4.8,20.5,75.1,0,0.84,5,���쓌,7.1,50,,
2020/7/14,13:00:00,4,��,3.4,20.7,80.5,0,0.96,4,��,7.4,33,,
2020/7/14,14:00:00,4,��,2.4,19.7,84.3,0,0.77,4,��,5.1,11,,
2020/7/14,15:00:00,5,���쓌,1.9,20.5,79.2,0,0.73,4,��,3.7,46,,
2020/7/14,16:00:00,5,���쓌,3.7,19.4,84.3,0,0.62,5,���쓌,5.2,55,,
2020/7/14,17:00:00,4,��,2.6,18.3,87.9,0,0.4,5,���쓌,4.7,9,,
2020/7/14,18:00:00,5,���쓌,2.2,17,92.6,0,0.11,4,��,5,22,,
2020/7/14,19:00:00,4,��,2,16.7,95.3,0,0.02,5,���쓌,3.5,1,,
2020/7/14,20:00:00,4,��,2.6,16.4,96.6,0,0,4,��,4.1,42,,
2020/7/14,21:00:00,5,���쓌,1.7,16.3,97,0,0,4,��,4,3,,
2020/7/14,22:00:00,3,���k��,2.1,16,98.4,0,0,5,���쓌,4.4,5,,
2020/7/14,23:00:00,2,�k��,1.9,15.5,98.4,0,0,3,���k��,3.4,6,,
2020/7/14,0:00:00,2,�k��,3,15.1,98.5,0,0,2,�k��,4.5,54,,
2020/7/15,1:00:00,2,�k��,3,14.5,99.1,0,0,2,�k��,5.4,15,,
2020/7/15,2:00:00,2,�k��,2.7,14.6,98.7,0,0,2,�k��,5.4,16,,
2020/7/15,3:00:00,2,�k��,4.1,14,97.3,0,0,2,�k��,7.6,55,,
2020/7/15,4:00:00,3,���k��,4.2,13.9,98,0,0,3,���k��,7.2,39,,
2020/7/15,5:00:00,3,���k��,4.4,13.8,96.6,0,0.02,3,���k��,7.4,25,,
2020/7/15,6:00:00,3,���k��,3.9,13.9,95.4,0,0.05,4,��,6.7,20,,
2020/7/15,7:00:00,3,���k��,4.4,13.7,96.2,0,0.09,3,���k��,7.3,24,,
2020/7/15,8:00:00,3,���k��,4.1,14,96.8,0,0.16,2,�k��,6.9,46,,
2020/7/15,9:00:00,3,���k��,4.9,14.5,91.8,0,0.24,4,��,7.3,21,,
2020/7/15,10:00:00,3,���k��,4.3,15.9,85.7,0,0.42,3,���k��,7.2,11,,
2020/7/15,11:00:00,3,���k��,3.3,15.4,83.7,0,0.45,4,��,7.7,22,,
2020/7/15,12:00:00,4,��,3.4,17,80.1,0,0.46,4,��,6.1,8,,
2020/7/15,13:00:00,4,��,4.6,16.9,80.2,0,0.69,5,���쓌,6.3,46,,
2020/7/15,14:00:00,4,��,4.2,17.6,78,0,0.72,4,��,6.6,0,,
2020/7/15,15:00:00,4,��,4.8,15.9,82.1,0,0.55,5,���쓌,7.4,31,,
2020/7/15,16:00:00,5,���쓌,4.7,15.3,80.9,0,0.33,5,���쓌,6.6,3,,
2020/7/15,17:00:00,5,���쓌,2.6,14.5,86.1,0,0.18,5,���쓌,5.7,1,,
2020/7/15,18:00:00,3,���k��,2,14.2,87.1,0,0.07,4,��,3.7,5,,
2020/7/15,19:00:00,4,��,2,13.7,88.5,0,0.02,3,���k��,3.3,32,,
2020/7/15,20:00:00,4,��,2.5,13.6,88.2,0,0,4,��,3.8,58,,
2020/7/15,21:00:00,4,��,2.5,13.4,89.1,0,0,5,���쓌,4.1,27,,
2020/7/15,22:00:00,4,��,2.3,13.2,90,0,0,4,��,3.5,0,,
2020/7/15,23:00:00,5,���쓌,2.1,13,90.1,0,0,4,��,4,5,,
2020/7/15,0:00:00,3,���k��,1.1,12.9,91.1,0,0,4,��,2.5,47,,
2020/7/16,1:00:00,3,���k��,0.8,12.7,91,0,0,3,���k��,2.4,17,,
2020/7/16,2:00:00,3,���k��,1.6,12.5,92.4,0,0,2,�k��,2.8,59,,
2020/7/16,3:00:00,3,���k��,1.1,12.4,93,0,0,3,���k��,3,2,,
2020/7/16,4:00:00,2,�k��,1.7,12.3,93,0,0,2,�k��,2.8,55,,
2020/7/16,5:00:00,2,�k��,1.4,12.4,94.3,0,0.01,4,��,2.7,11,,
2020/7/16,6:00:00,4,��,2.4,12.5,93.1,0,0.05,4,��,3,53,,
2020/7/16,7:00:00,4,��,2.1,13.6,91.9,0,0.11,4,��,3.2,52,,
2020/7/16,8:00:00,4,��,2.5,13.7,93.4,0,0.16,4,��,3.9,51,,
2020/7/16,9:00:00,4,��,2.5,13.9,88.8,0,0.24,3,���k��,3.7,27,,
2020/7/16,10:00:00,5,���쓌,2.5,15,87.2,0,0.36,5,���쓌,4.2,33,,
2020/7/16,11:00:00,6,�쓌,2.2,15.3,81.8,0,0.52,6,�쓌,4.3,43,,
2020/7/16,12:00:00,5,���쓌,2.5,17.2,73.4,0,0.76,5,���쓌,4.5,43,,
2020/7/16,13:00:00,6,�쓌,2.7,17.1,78.8,0,0.89,6,�쓌,4.9,46,,
2020/7/16,14:00:00,7,��쓌,3,17.4,81.7,0,0.78,7,��쓌,5.1,55,,
2020/7/16,15:00:00,7,��쓌,2.8,17.1,78.8,0,0.7,7,��쓌,5.4,2,,
2020/7/16,16:00:00,7,��쓌,2.5,16,83,0,0.44,7,��쓌,5.2,31,,
2020/7/16,17:00:00,8,��,1.6,15.7,83.6,0,0.21,8,��,4,7,,
2020/7/16,18:00:00,6,�쓌,2.3,14.8,85.5,0,0.08,5,���쓌,3.4,56,,
2020/7/16,19:00:00,6,�쓌,1.4,14.5,89.6,0,0.02,5,���쓌,2.8,40,,
2020/7/16,20:00:00,6,�쓌,1,14.3,92.2,0,0,6,�쓌,2.6,4,,
2020/7/16,21:00:00,16,�É�,0,14.3,92.7,0,0,6,�쓌,2.6,4,,
2020/7/16,22:00:00,16,�É�,0,14,94.3,0,0,9,��쐼,2.3,29,,
2020/7/16,23:00:00,8,��,0.7,14,93.8,0,0,9,��쐼,1.7,59,,
2020/7/16,0:00:00,9,��쐼,0.5,14,94.9,0,0,8,��,2.3,35,,
2020/7/17,1:00:00,15,�k�k��,0.4,13.6,98.4,0,0,13,���k��,1.7,28,,
2020/7/17,2:00:00,16,�É�,0.2,13.6,98.8,0,0,7,��쓌,0.9,0,,
2020/7/17,3:00:00,5,���쓌,0.5,13.6,99,0,0,8,��,2.1,7,,
2020/7/17,4:00:00,16,�É�,0.2,13.7,99.2,0,0,16,�k,1,29,,
2020/7/17,5:00:00,16,�É�,0.1,14,98.9,0,0.01,15,�k�k��,1,41,,
2020/7/17,6:00:00,16,�É�,0,15,93.7,0,0.09,1,�k�k��,0.9,1,,
2020/7/17,7:00:00,6,�쓌,1.4,15.8,91,0,0.16,6,�쓌,2.3,59,,
2020/7/17,8:00:00,5,���쓌,0.7,17,86.6,0,0.31,6,�쓌,3.5,41,,
2020/7/17,9:00:00,5,���쓌,2.3,17.7,85.7,0,0.39,5,���쓌,3.4,57,,
2020/7/17,10:00:00,6,�쓌,3.1,18.5,82.3,0,0.64,5,���쓌,4.7,53,,
2020/7/17,11:00:00,6,�쓌,2.5,19,80.6,0,0.79,6,�쓌,5.4,22,,
2020/7/17,12:00:00,6,�쓌,3.3,20,75.1,0,1.06,5,���쓌,6.4,35,,